Tracking 18630 objects as of 24-May-2017
HD Live streaming from Space Station
objects crossing your sky now

VANGUARD R/B

Track VANGUARD R/B now!
10-day predictions


NORAD ID: 16
Int'l Code: 1958-002A
Perigee: 27,305.4 km
Apogee: 44,434.8 km
Inclination: 34.3 °
Period: 1,440.0 minutes
Semi major axis: 42241 km
RCS: 0.2285 m2 (medium)
Launch date: March 17, 1958
Source: United States (US)
Launch site: AIR FORCE EASTERN TEST RANGE (AFETR)

Note: This is a ROCKET BODY
Your satellite tracking list
Your tracking list is empty





NASA's NSSDC Master Catalog

Two Line Element Set (TLE):
1    16U 58002A   17143.41251462 +.00000034 +00000-0 +30384-4 0  9992
2    16 034.2626 151.3541 2027573 191.2161 163.5618 10.48641794341146
Source of the keplerian elements: AFSPC